Preview of NWS' New Version of Forecast
This preview is not operational and should not be used for support decisions.

Regional Weather Roundup (RWR)

Issued by National Weather Service (NWS)

                            
000
ASUS43 KMKX 181359
RWRWI 

WISCONSIN REGIONAL WEATHER ROUNDUP
NATIONAL WEATHER SERVICE MILWAUKEE/SULLIVAN WI
800 AM CST MON FEB 18 2019

NOTE: "FAIR" INDICATES FEW OR NO CLOUDS BELOW 12,000 FEET WITH NO
SIGNIFICANT WEATHER AND/OR OBSTRUCTIONS TO VISIBILITY.

WIZ001-002-006>008-014>016-023>028-181500-
NORTHWEST WISCONSIN
  
CITY           SKY/WX    TMP DP  RH WIND       PRES   REMARKS
SUPERIOR ARPT  CLOUDY     4  -2  78 CALM      30.42R                  
ASHLAND        CLOUDY     6   1  80 N6        30.39R WCI  -4          
HAYWARD        FAIR      -9 -12  87 CALM      30.34R                  
SIREN          FAIR     -10 -14  80 CALM      30.38R                  
CUMBERLAND     FAIR       3   0  85 N5        30.35R WCI  -6          
RICE LAKE      FAIR       1  -2  88 NE3       30.35R                  
CHETEK         FAIR      -1  -4  87 CALM      30.36R                  
LADYSMITH      FLURRIES  -1  -4  84 CALM      30.34R                  
EAU CLAIRE     NOT AVBL                                               
MENOMONIE      FLURRIES   0  -4  85 CALM      30.37R                  
NEW RICHMOND   FAIR      -2  -6  84 NW5       30.38R WCI -12          
OSCEOLA        FAIR      -8 -12  83 CALM      30.42R                  
$$
 
WIZ003>005-009-010-017-018-181500-
NORTH CENTRAL WISCONSIN
  
CITY           SKY/WX    TMP DP  RH WIND       PRES   REMARKS
MANITOWISH WTR NOT AVBL                                               
ARBOR VITAE    CLOUDY     9   6  86 NE5       30.27R WCI   1          
WOODRUFF       CLOUDY     9   6  86 NE5       30.27R WCI   1          
RHINELANDER    FAIR       5  -1  76 N5        30.26R WCI  -4          
EAGLE RIVER    FAIR       3  -1  81 N6        30.25R WCI  -8          
LAND O LAKES   CLOUDY     6   2  84 N6        30.28R WCI  -5          
PHILLIPS       FLURRIES -10 -13  84 CALM      30.28R                  
TOMAHAWK       FAIR      -5  -8  88 CALM      30.28R                  
MEDFORD        FAIR       2  -2  84 N5        30.27R WCI  -8          
MERRILL        FAIR       2  -1  84 NE3       30.29R                  
$$
 
WIZ029-030-035-036-043>047-181500-
CENTRAL WISCONSIN
  
CITY           SKY/WX    TMP DP  RH WIND       PRES   REMARKS
WAUSAU         FAIR       6   1  80 N5        30.27R WCI  -3          
MOSINEE        PTCLDY     7   3  85 N12       30.28R WCI  -9          
MARSHFIELD     FAIR       7   2  80 NE8       30.27R WCI  -6          
STEVENS POINT  PTSUNNY    7   2  82 N6        30.28R WCI  -4          
WAUPACA        FAIR      13   6  72 N8        30.29R WCI   2          
WAUTOMA        FAIR      12   7  80 N7          N/A  WCI   1          
WISC RAPIDS    FAIR       9   1  70 N12       30.30R WCI  -6          
CAMP DOUGLAS   NOT AVBL                                               
$$
 
WIZ011>013-019>022-031-037>040-048>050-181500-
NORTHEAST WISCONSIN
  
CITY           SKY/WX    TMP DP  RH WIND       PRES   REMARKS
ANTIGO         FAIR       1  -3  86 N6        30.26R WCI -11          
SHAWANO        FAIR      13   7  78 CALM      30.29R                  
OCONTO         PTSUNNY   12   7  78 N7        30.29R WCI   2          
STURGEON BAY   FAIR      12   8  84 N12       30.27R WCI  -2          
GREEN BAY      FAIR      16   7  67 N13       30.29R WCI   2          
MANITOWOC      PTSUNNY   14   9  80 N14       30.27R WCI  -1          
APPLETON       MOSUNNY   10   3  72 N12       30.25R WCI  -4          
CLINTONVILLE   FAIR      11   4  73 N7        30.29R WCI   0          
OSHKOSH        FAIR      12   7  80 N10       30.27R WCI  -1          
$$
 
WIZ032>034-041-042-053>061-181500-
SOUTHWEST WISCONSIN
  
CITY           SKY/WX    TMP DP  RH WIND       PRES   REMARKS
LA CROSSE      FAIR       8   4  83 N6        30.35R WCI  -2          
SPARTA         FLURRIES   4   2  90 CALM      30.32R                  
VIROQUA        FAIR       8   7  96 N5        30.27R WCI   0          
BOSCOBEL       FAIR       8   5  87 CALM      30.33R                  
PRAIRIE DU CHI MOCLDY    13   9  85 NW5       30.33R WCI   5          
PLATTEVILLE    FAIR      16  14  93 NW5       30.27R WCI   8          
$$

WIZ056-057-062-063-064-067-068-181500-
SOUTH CENTRAL WISCONSIN
  
CITY           SKY/WX    TMP DP  RH WIND       PRES   REMARKS
REEDSBURG      FAIR      11   8  86 CALM      30.29R                  
BARABOO/DELLS  FAIR      10   8  89 N3        30.28R                  
LONE ROCK      NOT AVBL                                               
MINERAL POINT  FAIR      18  16  93 N9        30.25R WCI   6          
MADISON        PTSUNNY   15  11  83 N9        30.27R WCI   3          
MIDDLETON      CLOUDY    14  11  88 N6        30.27R WCI   5          
WATERTOWN      FAIR      15  12  87 N8        30.26R WCI   4          
MONROE         FAIR      16  12  85 MISG      30.25R                  
JANESVILLE     MOSUNNY   18  14  86 N9        30.26R WCI   6          
$$
 
WIZ051-052-058>065-066-070>072-181500-
SOUTHEAST WISCONSIN
  
CITY           SKY/WX    TMP DP  RH WIND       PRES   REMARKS
MILWAUKEE      PTSUNNY   19  12  74 N12       30.24R WCI   7          
WAUKESHA       MOSUNNY   14  10  85 NW6       30.24R WCI   5          
MILWAUKEE/TIMM PTSUNNY   16  10  79 N6        30.25R WCI   7          
RACINE         FLURRIES  19  15  84 N10       30.25R WCI   7          
KENOSHA        PTSUNNY   21  17  84 N9        30.23R FOG     WCI  11  
FOND DU LAC    FAIR      11   7  84 NW7       30.27R WCI   0          
SHEBOYGAN      FAIR      13   8  81 N13       30.24R WCI  -2          
WEST BEND      FAIR      14  12  92 N3        30.23R                  
JUNEAU         FAIR      12   8  85 N9        30.25R WCI   0          
$$

LSZ147-162-181500-
LAKE SUPERIOR
  
STATION/POSITION TIME  TEMP    WIND        PRES    WAVE
                       AIR SEA DIR/SP/G            HT/PER
                 (UTC) (F)     (DEG/KT/KT) (MB)    (FT/S)
DEVILS ISLAND    1300    9      30/  8/  9 1030.6R
SAXON HARBOR     1340   11      20/  5/ 10 1028.4R
$$
 
LMZ867-665-643>646-181500-
LAKE MICHIGAN
  
STATION/POSITION TIME  TEMP    WIND        PRES    WAVE
                       AIR SEA DIR/SP/G            HT/PER
                 (UTC) (F)     (DEG/KT/KT) (MB)    (FT/S)
CHAMBERS ISLAND  1340   12     320/  8/  9 1024.4R
NORTHPORT PIER   1340   14     350/  4/  5 1025.1R
KEWAUNEE LAKESHO 1324   13     330/  9/ 13 1023.1
SHEBOYGAN LAKESH 1300   15     330/ 13/ 15 1024.0R
PORT WASHINGTON  1330   17     320/  7/ 12 1025.1R
KENOSHA   LAKESH 1300   21     330/ 12/ 15 1022.0
$$

TC  - TEMPERATURE IN CELSIUS
VSB - VISIBILITY IN STATUTE MILES
WCI - WIND CHILL INDEX
HX  - HEAT INDEX